Tracking 25964 objects as of 11-Aug-2022
HD Live streaming from Space Station
objects crossing your sky now

NATO 3C

Track NATO 3C now!
NATO 3C is classified as:


NORAD ID: 11115
Int'l Code: 1978-106A
Perigee: 36,297.2 km
Apogee: 36,308.3 km
Inclination: 11.7 °
Period: 1,462.2 minutes
Semi major axis: 42673 km
RCS: 7.0899 m2 (large)
Launch date: November 19, 1978
Source: North Atlantic Treaty Organization (NATO)
Launch site: AIR FORCE EASTERN TEST RANGE (AFETR)
aabbcc
Your satellite tracking list
Your tracking list is empty




NASA's NSSDC Master Catalog

Two Line Element Set (TLE):
1 11115U 78106A   22222.49130931 -.00000082  00000-0  00000-0 0  9992
2 11115  11.7248 325.0260 0001302 201.3499 177.4850  0.98483220641364
Source of the keplerian elements: AFSPC